Regional Weather Roundup
Issued by NWS

Home | Current Version | Previous Version | Text Only | Print | Product List | Glossary Off
Versions: 1 2 3 4 5 6 7 8 9 10 11 12 13 14 15 16 17 18 19 20 21 22 23 24 25 26 27 28 29 30 31 32 33 34 35 36 37 38 39 40 41 42 43 44 45 46 47 48 49 50

626
ASUS43 KIND 160559
RWRIN

WEATHER ROUNDUP FOR INDIANA
NATIONAL WEATHER SERVICE INDIANAPOLIS IN
100 AM EST SAT DEC 16 2017

NOTE: "FAIR" INDICATES FEW OR NO CLOUDS BELOW 12,000 FEET WITH NO
SIGNIFICANT WEATHER AND/OR OBSTRUCTIONS TO VISIBILITY.

* - STATION DOES NOT REPORT WEATHER SUCH AS PRECIPITATION OR FOG.

+ - STATION NOT QUALITY CONTROLLED BY THE NATIONAL WEATHER SERVICE.
    USE DATA WITH CAUTION...ESPECIALLY DEWPOINT AND RELATIVE
    HUMIDITY OBSERVATIONS.

INZ001>003-010>013-019-020-160700-
NORTHWEST INDIANA

CITY           SKY/WX    TMP DP  RH WIND       PRES   REMARKS
MICHIGAN CITY+ CLOUDY    36  23  60 SW15      29.90F WCI  26
MONTICELLO +   CLOUDY    34  20  57 SW15G21   29.97S WCI  24
6HR MIN TEMP:  32; 6HR MAX TEMP:  34;

RENSSELAER +   CLOUDY    34  16  47 SW16      29.96S WCI  23

$$

LMZ046-743>745-160700-
SOUTHERN LAKE MICHIGAN

STATION/POSITION TIME  TEMP    WIND        PRES    WAVE
                       AIR SEA DIR/SP/G            HT
                 (UTC) (F)     (DEG/KT/KT) (MB)    (FT)
BURNS HARBOR     0540   37     220/ 17/ 22 1012.9F
MICHIGAN CITY    0530   37     210/ 24/ 28   N/A

$$

INZ004-005-014>016-021>024-160700-
NORTH CENTRAL INDIANA

CITY           SKY/WX    TMP DP  RH WIND       PRES   REMARKS
GOSHEN         CLOUDY    32  22  66 SW15      29.90F WCI  22
6HR MIN TEMP:  29; 6HR MAX TEMP:  32; 6HR PCP: TRACE;

PERU/GRISSOM   CLOUDY    34  22  61 SW21      29.95F WCI  23
6HR MIN TEMP:  31; 6HR MAX TEMP:  34;

SOUTH BEND     CLOUDY    32  23  69 SW12      29.90F WCI  23
6HR MIN TEMP:  29; 6HR MAX TEMP:  32; 6HR PCP: TRACE;


$$

INZ006>009-017-018-025>027-160700-
NORTHEAST INDIANA

CITY           SKY/WX    TMP DP  RH WIND       PRES   REMARKS
FORT WAYNE     CLOUDY    32  24  72 SW16      29.95F WCI  21
6HR MIN TEMP:  29; 6HR MAX TEMP:  32; 6HR PCP: TRACE;

KENDALLVILLE + CLOUDY    30  22  72 SW9       29.91F WCI  22

$$

INZ028-029-035-036-043>045-051>053-160700-
WEST CENTRAL INDIANA

CITY           SKY/WX    TMP DP  RH WIND       PRES   REMARKS
LAFAYETTE      CLOUDY    33  22  63 SW12      29.99F WCI  24
6HR MIN TEMP:  32; 6HR MAX TEMP:  34;

TERRE HAUTE    CLEAR     30  21  69 S6        30.06F WCI  24
6HR MIN TEMP:  29; 6HR MAX TEMP:  34;


$$

INZ030>032-037>040-046>048-054>057-064-065-160700-
CENTRAL INDIANA

CITY           SKY/WX    TMP DP  RH WIND       PRES   REMARKS
INDIANAPOLIS   MOCLDY    31  23  72 SW10      30.04F WCI  22
6HR MIN TEMP:  30; 6HR MAX TEMP:  34;

-EAGLE CREEK   CLOUDY    33  22  63 SW7       30.02F WCI  27
6HR MIN TEMP:  31; 6HR MAX TEMP:  34;

KOKOMO +       CLOUDY    34  22  61 SW20G26   29.98F WCI  23
6HR MIN TEMP:  31; 6HR MAX TEMP:  34;

MT COMFORT *+  CLOUDY    32  27  80 SW10      30.03F WCI  24
SHELBYVILLE    CLOUDY    30  23  75 S9        30.05F WCI  22
6HR MIN TEMP:  29; 6HR MAX TEMP:  31;


$$

INZ033-034-041-042-049-050-058-059-160700-
EAST CENTRAL INDIANA

CITY           SKY/WX    TMP DP  RH WIND       PRES   REMARKS
MUNCIE         CLOUDY    34  23  64 SW14G22   29.99F WCI  25
6HR MIN TEMP:  31; 6HR MAX TEMP:  34;

RICHMOND +     CLOUDY    30  25  80 SW12      30.03F WCI  21

$$

INZ060-061-067>069-081>083-085>088-160700-
SOUTHWEST INDIANA

CITY           SKY/WX    TMP DP  RH WIND       PRES   REMARKS
EVANSVILLE     FLURRIES  35  27  72 S8        30.12F WCI  29
6HR MIN TEMP:  32; 6HR MAX TEMP:  39; 6HR PCP: TRACE;


$$

INZ062-063-066-070>080-084-089>092-160700-
SOUTH CENTRAL AND SOUTHEAST INDIANA

CITY           SKY/WX    TMP DP  RH WIND       PRES   REMARKS
BLOOMINGTON    CLEAR     30  22  72 SW6       30.06F WCI  24
6HR MIN TEMP:  25; 6HR MAX TEMP:  33;

SEYMOUR +      PTCLDY    27  21  80 S9        30.10F WCI  17

$$





USA.gov is the U.S. government's official web portal to all federal, state and local government web resources and services.